Weather Roundup
Issued by NWS Springfield, MO

Home | Current Version | Previous Version | Text Only | Print | Product List | Glossary On
Versions: 1 2 3 4 5 6 7 8 9 10 11 12 13 14 15 16 17 18 19 20 21 22 23 24 25 26 27 28 29 30 31 32 33 34 35 36 37 38 39 40 41 42 43 44 45 46 47 48 49 50
000
NZUS99 KSGF 232207
HRRSGF

HOURLY WEATHER
NATIONAL WEATHER SERVICE SPRINGFIELD MO
500 PM CDT SUN APR 23 2017

......SGF CWA......

CITY           SKY/WX    TMP DP  RH WIND       PRES   REMARKS
SPRINGFIELD    SUNNY     69  36  29 N10       30.05S
JOPLIN         SUNNY     67  41  38 N8        30.08F
WEST PLAINS    SUNNY     70  32  24 N14G24    30.00F
ROLLA          SUNNY     69  35  28 N6        30.02F
OSAGE BEACH    SUNNY     70  31  23 NE8       30.05S
BRANSON        SUNNY     68  34  28 NW13G18   30.04F

......SURROUNDING SGF CWA......

CITY           SKY/WX    TMP DP  RH WIND       PRES   REMARKS
CHANUTE        SUNNY     68  38  33 NW3       30.08F
PARSONS        SUNNY     68  39  34 NW5       30.09F
COFFEYVILLE    SUNNY     69  39  33 NW7       30.07F
EMPORIA        SUNNY     67  35  30 VRB5      30.07F
GROVE OK       SUNNY     68  41  37 NW7       30.08F
ROGERS AR      SUNNY     66  39  37 N7G16     30.06F
SILOAM SPRINGS SUNNY     66  39  37 N10       30.06S
HARRISON AR    SUNNY     69  34  27 NW9       30.02F
NEAR YELLVILLE SUNNY    N/A N/A N/A NW12      29.97F

......KANSAS AND MISSOURI......

CITY           SKY/WX    TMP DP  RH WIND       PRES   REMARKS
KANSAS CTY INT MOSUNNY   70  32  24 VRB5      30.05F
DOWNTOWN KC    SUNNY     72  30  21 CALM      30.04F
COLUMBIA       SUNNY     71  29  21 NE9       30.05F
ST JOSEPH      SUNNY     72  33  24 S8        30.03F
ST LOUIS       SUNNY     73  30  20 NE13      30.02F
SPIRIT OF STL  SUNNY     72  31  22 N13       30.01F
KIRKSVILLE     SUNNY     71  33  24 S5        30.04F
WICHITA        MOSUNNY   67  33  28 S6        30.06F
TOPEKA         SUNNY     70  32  24 VRB7      30.05F
OLATHE         SUNNY     69  33  26 VRB3      30.06F

......TENNESSEE......

CITY           SKY/WX    TMP DP  RH WIND       PRES   REMARKS
MEMPHIS        CLOUDY    58  51  78 N8        29.93F
NASHVILLE      RAIN      53  51  93 NW6       29.85R FOG

......ARKANSAS.......

CITY           SKY/WX    TMP DP  RH WIND       PRES   REMARKS
FAYETTEVILLE   SUNNY     67  39  35 N10G18    30.04F
FT SMITH       SUNNY     73  34  23 NW14G20   30.01F
LITTLE ROCK    SUNNY     72  37  28 N16G24    29.95F

......OKLAHOMA.......

CITY           SKY/WX    TMP DP  RH WIND       PRES   REMARKS
TULSA          SUNNY     70  38  31 W5        30.05F
PONCA CITY     SUNNY     68  34  28 SW7       30.07F
MCALESTER      SUNNY     71  39  31 N7        30.06F
OKLAHOMA CITY  MOSUNNY   70  35  27 N7        30.06F

......IOWA............

CITY           SKY/WX    TMP DP  RH WIND       PRES   REMARKS
DES MOINES     PTSUNNY   73  31  21 SW12      30.00F
QUAD CITIES    SUNNY     73  32  22 CALM      30.02F

......ILLINOIS........

CITY           SKY/WX    TMP DP  RH WIND       PRES   REMARKS
QUINCY         SUNNY     72  26  18 CALM      30.03F
CHICAGO        MOSUNNY   70  31  23 E10       30.03S




USA.gov is the U.S. government's official web portal to all federal, state and local government web resources and services.